Location: Home
(42.5358°N, 72.7383°W)
Time: 18:47:39
(UTC-05:00)

Explorer 7 - Pass Details

Date: 03 December 2021
Orbit: 483 x 674 km, 50.3° (Epoch: 23 January)

Event Time Altitude Azimuth Distance (km) Brightness Sun altitude
Rises 09:59:37 0° 300° (WNW) 2,663 9.8 21.2°
Reaches altitude 10° 10:02:01 10° 309° (NW) 1,743 8.9 21.4°
Maximum altitude 10:05:40 35° 17° (NNE) 818 7.5 21.7°
Drops below altitude 10° 10:09:10 10° 85° (E) 1,677 9.6 21.9°
Sets 10:11:26 0° 94° (E) 2,545 10.6 22.1°
